PulseSat

PulseSat

MOLNIYA 1-56

Last updated on April 20, 2019, 3:02 a.m. UTC

1 13890U 83019A   19108.33005698 -.00001057  00000-0  00000-0 0  9999
2 13890  63.2715 176.3068 6929926 261.3692 179.4465  1.99893225263487
UTC
Height (km)
Latitude
Longitude
Inclination
Orbital Period

Next 30 passes for location: Hong Kong

Rise time Rise Azimuth (degrees) Set time Set Azimuth (degrees) Duration Max altitude (degrees)

No matching passes for this satellites

PulseSat

PulseSat is the new satellites software and hardware trackering solution by Pulsely.
Satellite Two Line Element Set source: US Air Force Space Command

Download PulseSat for iOS
© 2017 Pulsely Limited